Location: Unspecified
(0.0000°N, 0.0000°E)
Time: 10:51:16
(UTC+00:00)

deb Explorer IX - All Passes

Search period start: 30 March 2017 00:00
Search period end: 09 April 2017 00:00
Orbit: 539 x 1128 km, 38.8° (Epoch: 28 March)

Date Brightness Start Highest point End Pass type
(mag) Time Alt. Az. Time Alt. Az. Time Alt. Az.
30 Mar - 03:03:18 10° SW 03:08:53 58° SE 03:15:27 10° ENE visible
30 Mar - 04:51:17 10° W 04:56:31 27° NW 05:02:19 10° NNE visible
30 Mar - 14:03:16 10° NNW 14:08:01 24° NE 14:12:12 10° E daylight
30 Mar - 15:50:04 10° WNW 15:55:22 48° SW 15:59:53 10° SSE daylight
31 Mar - 02:44:05 10° SW 02:49:33 62° SE 02:55:59 10° ENE visible
31 Mar - 04:32:16 10° W 04:37:12 25° NW 04:42:40 10° NNE visible
31 Mar - 13:43:37 10° NNW 13:48:45 26° NE 13:53:15 10° E daylight
31 Mar - 15:30:41 10° WNW 15:36:06 45° SW 15:40:42 10° SSE daylight
01 Apr - 02:24:54 10° SW 02:30:13 67° SE 02:36:33 10° NE visible
01 Apr - 04:13:16 10° W 04:17:53 22° NW 04:22:59 10° NNE visible
01 Apr - 13:23:59 10° NNW 13:29:28 29° NE 13:34:15 10° E daylight
01 Apr - 15:11:18 10° WNW 15:16:49 42° SW 15:21:31 10° SSE daylight
02 Apr - 02:05:44 10° SW 02:10:55 72° SE 02:17:06 10° NE visible
02 Apr - 03:54:20 10° W 03:58:35 20° NW 04:03:17 10° N visible
02 Apr - 13:04:23 10° NNW 13:10:10 32° NE 13:15:14 10° E daylight
02 Apr - 14:51:56 10° WNW 14:57:32 40° SW 15:02:18 10° SSE daylight
03 Apr - 01:46:34 10° SW 01:51:37 77° SE 01:57:39 10° NE night (unlit)
03 Apr - 03:35:26 10° WNW 03:39:18 18° NW 03:43:33 10° N visible
03 Apr - 12:44:47 10° NNW 12:50:52 36° NE 12:56:10 10° ESE daylight
03 Apr - 14:32:32 10° WNW 14:38:14 37° SW 14:43:06 10° SSE daylight
04 Apr - 01:27:26 10° SW 01:32:21 83° SE 01:38:12 10° NE night (unlit)
04 Apr - 03:16:36 10° WNW 03:20:02 16° NW 03:23:46 10° N visible
04 Apr - 12:25:12 10° NNW 12:31:33 39° NE 12:37:06 10° ESE daylight
04 Apr - 14:13:10 10° WNW 14:18:55 36° SW 14:23:52 10° SSE daylight
05 Apr - 01:08:18 10° SW 01:13:05 90° NW 01:18:47 10° NE night (unlit)
05 Apr - 02:57:53 10° WNW 03:00:48 14° NW 03:03:55 10° N visible
05 Apr - 12:05:37 10° NNW 12:12:13 43° NE 12:18:00 10° ESE daylight
05 Apr - 13:53:48 10° WNW 13:59:36 34° SW 14:04:39 10° SSE daylight
05 Apr - 23:06:10 10° SSE 23:07:00 10° SE 23:07:50 10° SE night (unlit)
06 Apr - 00:49:12 10° SW 00:53:51 82° NW 00:59:21 10° NE night (unlit)
06 Apr - 02:39:17 10° WNW 02:41:33 13° NNW 02:43:58 10° N night (unlit)
06 Apr - 11:46:04 10° NNW 11:52:52 46° NE 11:58:53 10° ESE daylight
06 Apr - 13:34:25 10° WNW 13:40:15 32° SW 13:45:23 10° SSE daylight
06 Apr - 22:46:31 10° SSE 22:47:47 11° SE 22:49:05 10° ESE night (unlit)
07 Apr - 00:30:06 10° SW 00:34:37 75° NW 00:39:56 10° NE night (unlit)
07 Apr - 02:21:01 10° NW 02:22:21 11° NNW 02:23:43 10° NNW night (unlit)
07 Apr - 09:43:55 10° NNE 09:45:10 10° NNE 09:46:26 10° NE daylight
07 Apr - 11:26:31 10° NW 11:33:30 50° NE 11:39:43 10° ESE daylight
07 Apr - 13:15:03 10° WNW 13:20:56 31° SW 13:26:07 10° SSE daylight
07 Apr - 22:26:59 10° SSE 22:28:35 12° SE 22:30:13 10° ESE night (unlit)
08 Apr - 00:11:01 10° WSW 00:15:24 67° NW 00:20:31 10° NE night (unlit)
08 Apr - 09:23:33 10° NNE 09:25:51 12° NE 09:28:08 10° NE daylight
08 Apr - 11:07:00 10° NW 11:14:08 54° NE 11:20:33 10° ESE daylight
08 Apr - 12:55:42 10° W 13:01:35 29° SW 13:06:50 10° SSE daylight
08 Apr - 22:07:31 10° SSE 22:09:23 13° SE 22:11:18 10° ESE night (unlit)
